[[{"header":{"parameterUnit":"m.s-1","parameterCategory":1,"la1":30.2991,"la2":30.254,"lo1":-89.0895,"lo2":-89.0444,"dy":0.0017,"dx":0.0017,"nx":28,"ny":28,"refTime":"2025-09-04T21:00:00:Z","depth":0,"parameterNumber":2,"parameterNumberName":"U-component_of_WINDS"},"data":[0,0,0,0,0,0,0,0,0,0,0,0,0,0,0,0,0,0,0,0,0,0,0,0,0,0,0,0,0,0,0,0,0,0,0,0,0,0,0,0,0,0,0,0,0,0,0,0,0,0,0,0,0,0,0,0,0,0,0.82,0.8199,0,0.813,0.8129,0.8128,0.8121,0.8122,0.8123,0.8123,0.8048,0.8046,0.8043,0,0,0,0,0,0,0,0,0,0,0,0,0,0.8325,0.8322,0.82,0.8199,0.8198,0.813,0.8129,0.8128,0.8121,0.8122,0.8123,0.8124,0.8049,0.8046,0.8043,0,0,0,0,0,0,0,0,0,0,0,0,0,0.8264,0.8322,0.82,0.8186,0.8185,0.813,0.8129,0.8128,0.8121,0.8122,0.8123,0.8124,0.805,0.8046,0.8042,0.7995,0,0,0.803,0.8028,0,0,0,0,0,0,0,0,0.8267,0.8259,0.8189,0.8187,0.8185,0.8135,0.8145,0.8083,0.8121,0.8145,0.8123,0.8125,0.8076,0.807,0.8054,0.7992,0.7988,0.803,0.8027,0.8025,0.8024,0,0,0,0,0,0,0,0.8272,0.8262,0.8172,0.8188,0.8186,0.8183,0.8176,0.8133,0.8105,0.8143,0.8142,0.8134,0.8075,0.8058,0.8053,0.7987,0.803,0.8026,0.8024,0.8022,0.7882,0.7881,0,0,0,0,0,0,0.8279,0.8266,0.8174,0.817,0.823,0.818,0.8172,0.815,0.8106,0.81,0.8133,0.8134,0.8065,0.8057,0.805,0.7991,0.8025,0.8022,0.8019,0.7883,0.7882,0.788,0,0,0,0,0,0,0.8282,0.8271,0.8177,0.8218,0.8206,0.8177,0.8152,0.8148,0.8131,0.8098,0.8093,0.8122,0.8065,0.8056,0.8009,0.7989,0.802,0.8016,0.7885,0.7883,0.7881,0.7874,0,0,0,0,0,0,0.8285,0.8272,0.8254,0.8217,0.8203,0.8138,0.8151,0.8146,0.8125,0.8125,0.8086,0.808,0.8065,0.8015,0.8005,0.7984,0.8013,0.7886,0.7884,0.7882,0.7876,0.7872,0.7869,0,0,0,0,0,0.829,0.8254,0.8253,0.8242,0.8181,0.8137,0.8129,0.8113,0.8123,0.8105,0.8084,0.8082,0.7993,0.801,0.7999,0.7976,0.7888,0.7885,0.7882,0.7877,0.7873,0.7869,0,0,0,0,0,0,0.8288,0.8249,0.8248,0.82,0.8172,0.8136,0.8112,0.8109,0.8077,0.8078,0.8059,0.805,0.8004,0.7986,0.8006,0.7928,0.7941,0.7936,0.7942,0.7937,0.7933,0.7938,0.801,0,0,0,0,0,0.8283,0.8251,0.8218,0.8179,0.8165,0.8141,0.8121,0.8112,0.8082,0.807,0.8045,0.8015,0.798,0.7958,0.7924,0.7874,0.7864,0.7852,0.7849,0.7846,0.7841,0.7812,0.7806,0.7871,0.7871,0.7871,0,0,0.827,0.8245,0.8226,0.8178,0.8155,0.8122,0.8131,0.8096,0.807,0.8064,0.8019,0.8,0.7965,0.7916,0.7893,0.7899,0.7821,0.7842,0.784,0.7837,0.7809,0.7802,0.7797,0.7869,0.7869,0.7869,0,0,0.823,0.8208,0.8173,0.815,0.8116,0.8101,0.8092,0.8057,0.8044,0.7999,0.7993,0.7963,0.7903,0.7879,0.7858,0.781,0.7806,0.7799,0.778,0.7752,0.7747,0.7743,0.7724,0.7718,0.7795,0.7795,0.7795,0,0.8218,0.8169,0.8155,0.812,0.8098,0.8093,0.8056,0.8034,0.7991,0.7976,0.7983,0.7909,0.7885,0.783,0.7818,0.7802,0.7791,0.7803,0.7749,0.7745,0.774,0.7722,0.7716,0.7794,0.7794,0.7794,0.7794,0,0.8156,0.8122,0.8097,0.8056,0.8032,0.7997,0.7976,0.7954,0.7947,0.793,0.7883,0.7855,0.7815,0.7801,0.7794,0.7745,0.775,0.7754,0.7766,0.7733,0.7716,0.771,0.7793,0.7793,0.7794,0.7794,0,0,0.8112,0.8065,0.8056,0.8037,0.7999,0.7972,0.7936,0.7898,0.7879,0.7849,0.7817,0.7768,0.7771,0.7748,0.7738,0.7713,0.7676,0.772,0.7719,0.7712,0.7619,0.7616,0.7609,0.7674,0.7672,0.7671,0.7622,0,0.8067,0.8003,0.799,0.7935,0.7902,0.7897,0.7865,0.7838,0.7821,0.7791,0.7772,0.7737,0.7745,0.7731,0.7707,0.7685,0.7657,0.7689,0.7643,0.7641,0.7651,0.76,0.7596,0.7551,0.7615,0.7614,0.7613,0,0.8006,0.7976,0.7918,0.7884,0.787,0.7842,0.7806,0.7778,0.7747,0.7736,0.7711,0.7703,0.7664,0.768,0.7625,0.7648,0.7628,0.7615,0.7613,0.7607,0.7625,0.7591,0.7536,0.7529,0.7603,0.7604,0.7605,0,0.7978,0.7923,0.7881,0.7866,0.7826,0.7806,0.7789,0.7759,0.7737,0.7706,0.7691,0.7655,0.7635,0.7607,0.7589,0.7602,0.7536,0.755,0.7525,0.7525,0.751,0.7511,0.745,0.7499,0.7499,0.75,0.75,0,0.7929,0.7893,0.7869,0.7843,0.7802,0.7787,0.7747,0.7729,0.7703,0.7673,0.7665,0.7637,0.7616,0.7584,0.757,0.7526,0.7517,0.7507,0.7503,0.7507,0.7508,0.7493,0.7495,0.7498,0.7498,0.7499,0.7499,0,0.7891,0.7874,0.7827,0.7794,0.7785,0.7756,0.7727,0.7701,0.7685,0.7647,0.7637,0.7611,0.7573,0.7553,0.7506,0.7496,0.7447,0.7446,0.7458,0.7456,0.7432,0.7434,0.7357,0.7346,0.7404,0.7404,0.7403,0,0.786,0.7833,0.7797,0.7777,0.7759,0.7727,0.7705,0.7689,0.7666,0.7629,0.7607,0.7569,0.7538,0.7477,0.7454,0.7417,0.7414,0.739,0.7408,0.7413,0.7412,0.7414,0.741,0.7386,0.7386,0.7385,0.7385,0,0.7807,0.78,0.7769,0.7735,0.771,0.7682,0.7654,0.7638,0.7617,0.7592,0.7554,0.7529,0.7481,0.7443,0.7405,0.7386,0.7381,0.7379,0.7371,0.7374,0.7382,0.7376,0.7448,0.7381,0.7381,0.7382,0.7382,0.7382,0.7771,0.7747,0.7718,0.7683,0.7661,0.7636,0.761,0.7591,0.7559,0.752,0.7512,0.7471,0.7441,0.7389,0.7369,0.7336,0.734,0.7329,0.7326,0.7323,0.7322,0.7388,0.7329,0.7329,0.7329,0.7329,0.7329,0,0.7717,0.7698,0.7667,0.7629,0.7602,0.7602,0.7572,0.7549,0.7514,0.7486,0.7456,0.7412,0.7375,0.7349,0.7311,0.729,0.7287,0.728,0.7281,0.7276,0.732,0.733,0.7283,0.7283,0.7283,0.7283,0.7283,0.7283,0.7685,0.7643,0.7633,0.7579,0.7561,0.7522,0.7504,0.748,0.7458,0.741,0.738,0.7363,0.7336,0.7296,0.7262,0.7255,0.7241,0.7235,0.7227,0.7268,0.7273,0.7278,0.7287,0.7232,0.7232,0.7186,0.7186,0.7185]},{"header":{"parameterUnit":"m.s-1","parameterCategory":1,"la1":30.2991,"la2":30.254,"lo1":-89.0895,"lo2":-89.0444,"dy":0.0017,"dx":0.0017,"nx":28,"ny":28,"refTime":"2025-09-04T21:00:00:Z","depth":0,"parameterNumber":3,"parameterNumberName":"V-component_of_WINDS"},"data":[0,0,0,0,0,0,0,0,0,0,0,0,0,0,0,0,0,0,0,0,0,0,0,0,0,0,0,0,0,0,0,0,0,0,0,0,0,0,0,0,0,0,0,0,0,0,0,0,0,0,0,0,0,0,0,0,0,0,-2.345,-2.345,0,-2.3449,-2.3449,-2.3449,-2.3428,-2.3428,-2.3427,-2.3427,-2.3424,-2.3425,-2.3425,0,0,0,0,0,0,0,0,0,0,0,0,0,-2.3434,-2.3434,-2.345,-2.345,-2.345,-2.3449,-2.3449,-2.3449,-2.3428,-2.3428,-2.3427,-2.3426,-2.3424,-2.3425,-2.3425,0,0,0,0,0,0,0,0,0,0,0,0,0,-2.3438,-2.3434,-2.345,-2.344,-2.3439,-2.3449,-2.3449,-2.3449,-2.3428,-2.3428,-2.3427,-2.3426,-2.3424,-2.3425,-2.3425,-2.3445,0,0,-2.3427,-2.3428,0,0,0,0,0,0,0,0,-2.3437,-2.3438,-2.3441,-2.344,-2.3439,-2.3438,-2.3442,-2.3448,-2.3429,-2.3432,-2.3427,-2.3426,-2.3429,-2.343,-2.3431,-2.3445,-2.3445,-2.3427,-2.3428,-2.3428,-2.3428,0,0,0,0,0,0,0,-2.3437,-2.3438,-2.3449,-2.3441,-2.344,-2.3435,-2.3435,-2.3443,-2.3435,-2.3432,-2.343,-2.3431,-2.3429,-2.3431,-2.3431,-2.3445,-2.3427,-2.3428,-2.3428,-2.3429,-2.3477,-2.3477,0,0,0,0,0,0,-2.3438,-2.3438,-2.3449,-2.3449,-2.3436,-2.3436,-2.3435,-2.3439,-2.3435,-2.3434,-2.3431,-2.343,-2.343,-2.343,-2.3431,-2.3455,-2.3428,-2.3429,-2.3429,-2.3476,-2.3477,-2.3478,0,0,0,0,0,0,-2.3438,-2.344,-2.3449,-2.3443,-2.3444,-2.3437,-2.3441,-2.3439,-2.3441,-2.3435,-2.3433,-2.3435,-2.3429,-2.343,-2.3442,-2.3454,-2.3429,-2.343,-2.3475,-2.3476,-2.3477,-2.3502,0,0,0,0,0,0,-2.3438,-2.344,-2.3447,-2.3444,-2.3445,-2.3461,-2.3442,-2.344,-2.3442,-2.344,-2.3437,-2.3436,-2.3429,-2.3441,-2.3443,-2.3455,-2.343,-2.3473,-2.3475,-2.3477,-2.35,-2.3504,-2.3508,0,0,0,0,0,-2.3437,-2.3454,-2.3448,-2.3449,-2.3454,-2.3462,-2.3462,-2.3454,-2.3444,-2.3451,-2.3447,-2.3436,-2.3453,-2.3443,-2.3444,-2.3457,-2.3473,-2.3475,-2.3477,-2.3499,-2.3504,-2.3508,0,0,0,0,0,0,-2.3458,-2.3453,-2.3446,-2.3462,-2.3463,-2.3458,-2.3467,-2.3459,-2.3462,-2.346,-2.3449,-2.3448,-2.3463,-2.3461,-2.345,-2.3476,-2.3461,-2.3463,-2.3477,-2.3482,-2.3485,-2.3486,-2.3431,0,0,0,0,0,-2.3465,-2.3472,-2.3467,-2.3481,-2.3482,-2.3475,-2.3478,-2.3471,-2.3471,-2.3471,-2.3468,-2.3468,-2.3474,-2.3477,-2.3482,-2.35,-2.3499,-2.3509,-2.3513,-2.3516,-2.3518,-2.3529,-2.3533,-2.3484,-2.3484,-2.3484,0,0,-2.3478,-2.3476,-2.3481,-2.3485,-2.3485,-2.3493,-2.3475,-2.3484,-2.3489,-2.3472,-2.3484,-2.3482,-2.3482,-2.3497,-2.3504,-2.3496,-2.3532,-2.3518,-2.3521,-2.3522,-2.3531,-2.3536,-2.354,-2.3486,-2.3485,-2.3485,0,0,-2.3506,-2.3505,-2.3518,-2.3518,-2.3518,-2.3514,-2.3517,-2.3514,-2.3512,-2.3524,-2.3512,-2.3518,-2.3527,-2.3528,-2.353,-2.356,-2.355,-2.3561,-2.3581,-2.3591,-2.3595,-2.3599,-2.361,-2.3615,-2.3564,-2.3564,-2.3564,0,-2.3523,-2.3534,-2.3525,-2.3535,-2.3538,-2.3524,-2.3537,-2.3537,-2.3538,-2.3541,-2.3532,-2.3544,-2.3543,-2.3559,-2.3566,-2.3568,-2.3571,-2.3562,-2.3595,-2.3599,-2.3602,-2.3613,-2.3617,-2.3565,-2.3565,-2.3565,-2.3565,0,-2.3555,-2.3563,-2.3573,-2.3576,-2.358,-2.3591,-2.3584,-2.3589,-2.3582,-2.3578,-2.3591,-2.3589,-2.3594,-2.3597,-2.359,-2.3612,-2.3608,-2.3597,-2.3582,-2.3608,-2.3618,-2.3622,-2.3567,-2.3567,-2.3566,-2.3566,0,0,-2.3596,-2.3595,-2.3599,-2.36,-2.36,-2.3606,-2.3617,-2.3622,-2.3627,-2.3628,-2.3638,-2.3646,-2.3637,-2.3639,-2.3632,-2.3641,-2.3667,-2.363,-2.363,-2.3638,-2.3692,-2.3701,-2.3706,-2.366,-2.3661,-2.3661,-2.3693,0,-2.3625,-2.3644,-2.3637,-2.3656,-2.3664,-2.3651,-2.3661,-2.3662,-2.3659,-2.3665,-2.3662,-2.3669,-2.3655,-2.3657,-2.3665,-2.3662,-2.3678,-2.3659,-2.3669,-2.367,-2.3671,-2.3711,-2.372,-2.375,-2.3697,-2.3697,-2.3698,0,-2.3661,-2.3665,-2.3686,-2.3685,-2.3688,-2.3697,-2.3702,-2.3708,-2.3709,-2.3706,-2.3709,-2.37,-2.3711,-2.3695,-2.3711,-2.3698,-2.3702,-2.3701,-2.3702,-2.3703,-2.3686,-2.3714,-2.3759,-2.3764,-2.3704,-2.3703,-2.3703,0,-2.369,-2.3701,-2.3715,-2.3716,-2.3716,-2.3723,-2.3722,-2.3723,-2.3727,-2.373,-2.3733,-2.3738,-2.3741,-2.3745,-2.3738,-2.3727,-2.3755,-2.3738,-2.3753,-2.3754,-2.376,-2.376,-2.3807,-2.3761,-2.3761,-2.3761,-2.3761,0,-2.3723,-2.3737,-2.3728,-2.3737,-2.3752,-2.3744,-2.3759,-2.3757,-2.3758,-2.3766,-2.3755,-2.3763,-2.3753,-2.376,-2.3755,-2.3769,-2.377,-2.3769,-2.3767,-2.377,-2.3771,-2.3773,-2.3771,-2.3762,-2.3762,-2.3762,-2.3761,0,-2.3759,-2.3754,-2.3769,-2.3767,-2.3767,-2.3778,-2.3777,-2.3785,-2.3782,-2.3793,-2.3795,-2.3789,-2.3797,-2.3791,-2.3798,-2.3795,-2.3814,-2.3809,-2.3814,-2.3813,-2.3829,-2.3828,-2.388,-2.3886,-2.3836,-2.3836,-2.3837,0,-2.3781,-2.3791,-2.3791,-2.3796,-2.3797,-2.3805,-2.381,-2.3802,-2.3807,-2.3809,-2.3817,-2.3825,-2.383,-2.3844,-2.384,-2.3846,-2.3842,-2.386,-2.3843,-2.3846,-2.3844,-2.3843,-2.3845,-2.3863,-2.3864,-2.3864,-2.3865,0,-2.3821,-2.3818,-2.3825,-2.3831,-2.3836,-2.3841,-2.3844,-2.3849,-2.3841,-2.3847,-2.3856,-2.386,-2.3868,-2.3876,-2.3881,-2.3881,-2.3872,-2.387,-2.3874,-2.3878,-2.3881,-2.388,-2.3825,-2.3869,-2.3869,-2.3868,-2.3868,-2.3868,-2.3851,-2.386,-2.3862,-2.387,-2.3872,-2.3875,-2.3884,-2.3882,-2.3889,-2.3895,-2.389,-2.3901,-2.3902,-2.3908,-2.3909,-2.3917,-2.391,-2.3916,-2.3917,-2.3919,-2.3922,-2.3879,-2.3918,-2.3918,-2.3918,-2.3918,-2.3918,0,-2.3891,-2.3892,-2.3899,-2.3905,-2.3912,-2.3903,-2.3906,-2.3913,-2.3922,-2.3924,-2.393,-2.3941,-2.3948,-2.3946,-2.3953,-2.396,-2.3956,-2.3962,-2.3962,-2.3962,-2.3927,-2.3924,-2.3965,-2.3965,-2.3965,-2.3965,-2.3965,-2.3965,-2.3913,-2.3928,-2.3926,-2.3942,-2.3942,-2.3953,-2.3956,-2.396,-2.3962,-2.3974,-2.3981,-2.3979,-2.398,-2.3987,-2.3994,-2.3993,-2.3996,-2.4004,-2.4002,-2.3969,-2.3965,-2.396,-2.3957,-2.4005,-2.4005,-2.4036,-2.4036,-2.4037]}]]